COSMOS 2251 DEB, 46430

Orbit data source: Space-Track

COSMOS 2251 DEB, 46430 is space debris in LEO originally from a launch on Wed, 16 Jun 1993 UTC launched from the Plesetsk Missile And Space Complex (PKMTR). The debris from Iridium 33, an American commercial communications satellite, has been tracked extensively since its accidental collision with the defunct Russian satellite Cosmos 2251 in 2009. This event, occurring at high speed in low Earth orbit (LEO), generated thousands of pieces of space debris, significantly increasing the risk of further collisions. The Iridium 33 debris cloud has impacted space traffic management and orbital debris mitigation strategies, making it a subject of ongoing study in space situational awareness.

Loading next visibility...
Identifier
46430, 1993-036BWU
Orbit
LEO
Country
Flag of CISCIS
Related business
Manufacturer
Unknown
Mission
Spacecraft
Bus & Motor
Unknown
Mass
Unknown
Launch date (UTC)
1993-06-16 (33 years ago)
Launch vehicle
Unknown
Launch site
Plesetsk Missile And Space Complex (PKMTR)
Object type
Payload
Rocket body
Debris
Shape & HBR
Unknown shape, 0.1 m
Radar Cross Section
Small (<0.1 m²)

Expand to show TLE details & history
Last TLE update: 5 days ago

TLE from 5 days ago
0 COSMOS 2251 DEB
1 46430U 93036BWU 26029.36837621  .00010916  00000-0  25277-2 0  9995
2 46430  73.9135 265.9616 0098671 175.9518 184.2465 14.52197202803744
Epoch: 2026-01-29T08:50Z
TLE epoch observation values (Epoch: 2026-01-29T08:50:27.704Z)
Latitude
-0.00007°
Longitude
4.72407°
Altitude
790.952 km
Speed
7.422 km/s
True Right ascension
17h 43m 50s
True Declination
0° 00' 00"
Sunlit
Object was in daylight at epoch
Visualization orbit readout
Latitude
Unknown
Longitude
Unknown
Altitude
Unknown
Speed
Unknown
Apparent Right ascension
Unknown
Apparent Declination
Unknown
Sunlit
N/A
Visualization observer readout
Local Sidereal Time
08:43:46
Azimuth
Unknown
Elevation
Unknown
Doppler factor
Unknown
Orbital elements
Apogee altitude
786.097 km
Perigee altitude
646.098 km
Semi-major axis
7,094.235 km
Eccentricity
0.00987
Inclination
73.9135°
RAAN
265.9616°
Arg. of periapsis
175.9518°
True anomaly
184.16379°
Mean anomaly
184.2465°
Eccentric anomaly
184.20505°
Mean motion
3.63233 °/min
Orbital period
99.11 mins
BSTAR
0.0025277

Documentation

Showing up to 5 results
|